Location: Brookfield Center
(41.2406°N, 80.5579°W)
Time: 12:20:57
(UTC+00:00)

USA 215 - Pass Details

Date: 18 January 2020
Orbit: 1101 x 1107 km, 123.0° (Epoch: 06 February)

Event Time Altitude Azimuth Distance (km) Brightness Sun altitude
Rises 09:17:41 0° 107° (ESE) 3,915 6.9 -38.5°
Reaches altitude 10° 09:20:15 10° 102° (ESE) 2,958 6.2 -38.0°
Enters shadow 09:26:04 47° 41° (NE) 1,432 3.9 -36.9°
